CAPE
1636 2102 2159 1062 597 248 188 636 380 372 213 1715 805 923 1428 2534 1137 1441 1992 118 7 0 1 8 14 14 1 0 0 0 0 0 0 0 0 0 0 2
1761 2409 2750 1620 1363 1227 1103 594 537 971 765 1420 2251 2633 1793 1786 1327 1491 2219 91 0 0 0 0 0 0 0 0 0 0 0 0 0 0 0 2 13 15
2624 2796 2995 3435 1737 1716 1228 1273 1158 738 761 663 1862 1507 2412 2256 1568 2254 862 1203 137 0 0 0 0 0 0 0 0 0 0 0 0 0 0 5 8 9
2733 3049 2236 1813 3077 3108 1980 2833 2012 1445 1286 2427 1369 1183 2562 3184 2087 2449 1710 2150 1019 0 0 0 0 0 0 0 0 0 0 0 0 0 0 0 4 9
2799 2953 2601 2673 3042 1992 2433 1866 1733 1466 1653 1333 1001 1489 1411 1859 2324 2259 2064 1522 747 0 0 0 0 0 0 0 0 0 0 0 0 0 0 0 0 3
2837 2798 2710 2691 2850 2947 2538 3034 2548 2311 2112 1720 1490 842 1021 1951 2132 1708 1083 578 51 0 0 0 0 0 0 0 0 0 0 0 0 0 0 0 0 0
2684 2575 2696 2627 1738 1840 2928 2745 2826 3037 1621 1342 980 883 1024 2341 2413 2443 1328 387 100 194 6 1 0 0 0 0 0 0 0 0 0 0 0 0 0 0
2103 2555 2723 1769 1464 845 798 510 1003 2909 2709 1944 1588 800 1993 2167 2144 3105 2473 195 11 1 8 2 0 0 0 0 0 0 0 0 0 0 0 0 0 0
1610 1739 1808 1324 1163 2060 1112 207 131 121 150 2415 2970 2741 2639 3091 3037 3284 2218 557 471 178 72 11 4 5 0 0 0 0 0 0 0 0 0 0 0 0
0 9 127 490 712 767 1631 1586 1742 2097 1569 929 1356 2356 3060 3088 3427 3266 2858 1752 1437 305 58 8 6 4 1 1 0 0 0 0 0 0 0 0 0 0
0 0 0 0 0 0 1 223 1410 1880 1132 547 912 297 803 203 525 2238 1377 1040 11 3 7 3 4 10 10 8 2 0 0 0 0 0 0 0 0 0
0 0 0 0 0 0 0 0 2 66 1547 2012 2435 161 18 124 17 463 775 1325 127 12 6 3 7 13 9 11 8 1 0 0 0 0 0 0 0 0
0 0 0 0 0 0 0 0 9 12 5 506 1939 2575 2315 1659 251 429 114 686 120 24 4 0 3 6 7 11 14 8 2 2 1 0 0 0 0 0
6 1 2 0 0 0 0 0 0 0 4 0 629 1524 877 781 165 90 26 2 12 131 3 3 4 4 3 8 10 21 5 3 5 1 0 0 0 0
11 5 0 0 0 0 0 0 0 5 20 20 305 184 138 32 7 4 4 4 5 8 16 0 1 1 0 4 8 15 8 15 6 6 13 0 0 0
3 6 1 0 0 0 0 0 0 20 23 45 143 3 5 7 6 8 3 1 2 4 5 0 0 0 4 2 4 11 10 16 20 9 33 97 71 82
0 1 3 4 2 2 2 3 11 27 64 25 3 5 5 4 8 5 5 4 5 5 3 10 13 10 6 5 11 9 11 40 0 24 77 62 52 18
5 8 6 5 4 11 4 21 35 11 1 1 2 3 4 5 6 8 4 5 4 4 2 4 5 5 7 9 0 2 19 61 83 8 16 51 10 0
6 7 7 7 6 6 5 4 3 5 5 5 2 4 4 3 2 3 6 4 3 1 1 1 1 0 1 6 0 0 27 3 0 12 25 50 46 51
4 4 5 8 6 7 6 5 3 3 4 5 7 7 2 1 1 2 2 0 0 0 0 0 0 0 0 0 10 3 0 47 33 31 21 22 0 0
7 4 6 8 5 4 5 4 4 3 5 4 3 0 0 0 0 0 0 0 0 0 0 0 0 0 9 19 13 8 0 0 3 32 67 16 12 4
6 18 4 3 11 12 8 10 5 3 0 0 1 2 0 0 0 0 0 0 0 0 0 0 35 54 49 12 6 12 4 0 0 0 0 0 0 2
15 8 4 18 22 14 11 3 0 0 0 2 0 0 0 0 0 0 0 0 0 0 28 15 10 8 33 17 12 3 19 0 0 0 0 0 0 0
CIN
-1 0 0 0 -1 -1 -1 -1 0 0 -1 -4 -2 -3 -14 -24 -146 -7 -35 -224 -169 0 -220 -183 -155 -149 -21 0 0 0 0 0 0 0 0 0 0 0
-3 -10 -1 0 -1 -2 -40 -2 0 -3 -1 -1 -45 -32 -11 -10 -166 -2 -21 -255 0 0 0 0 0 0 0 0 0 0 0 0 0 0 0 -1 -2 0
0 0 0 0 0 0 -8 -10 -8 -1 0 0 -3 -2 -17 -2 -3 -2 -108 -20 -154 0 0 0 0 0 0 0 0 0 0 0 0 0 0 -3 -2 -1
0 0 0 0 0 -2 0 -1 -2 -37 0 0 -1 0 -1 -9 -2 -2 -29 -5 -13 0 0 0 0 0 0 0 0 0 0 0 0 0 0 0 0 0
0 0 0 0 0 0 0 0 -6 -12 -8 -2 0 -4 -5 -5 -10 -1 -1 -1 -28 0 0 0 0 0 0 0 0 0 0 0 0 0 0 0 0 0
0 0 0 0 0 0 0 0 -1 0 -2 -3 0 -1 0 -7 -11 -6 -18 -36 -124 0 0 0 0 0 0 0 0 0 0 0 0 0 0 0 0 0
0 0 0 -1 -7 -7 -2 -2 -1 -1 0 -4 -10 -10 -4 -15 0 -1 -5 -59 -84 -43 0 0 0 0 0 0 0 0 0 0 0 0 0 0 0 0
0 0 0 -7 -3 -24 -26 -64 -39 0 0 0 0 -18 -29 -11 -5 0 0 -79 -95 0 0 0 0 0 0 0 0 0 0 0 0 0 0 0 0 0
-3 -1 -1 0 -4 0 -19 -112 -119 -130 -115 -6 0 0 -5 -3 -1 -2 0 -68 -48 -66 -70 -36 -1 -1 0 0 0 0 0 0 0 0 0 0 0 0
0 -10 -57 -39 -28 -25 0 0 0 -1 -19 -21 -2 0 0 -2 -3 -2 0 -7 -1 -45 -102 0 -2 0 0 0 0 0 0 0 0 0 0 0 0 0
0 0 0 0 0 0 0 -30 0 0 -1 -54 -24 -117 -42 -190 -218 -15 -14 0 -14 -15 -18 0 0 0 0 0 -1 0 0 0 0 0 0 0 0 0
0 0 0 0 0 0 0 0 0 -9 0 0 0 -94 -13 -188 -238 -72 -16 0 -46 -6 0 0 0 0 0 0 0 0 0 0 0 0 0 0 0 0
0 0 0 0 0 0 0 0 0 -5 -1 -3 0 0 0 0 -118 -91 -154 -5 -55 -67 -30 0 0 0 0 0 0 0 0 0 0 0 0 0 0 0
0 0 0 -1 0 0 0 0 0 -1 0 0 0 0 -5 -17 -80 -68 -63 0 -35 -52 0 -2 0 0 0 0 0 0 0 0 0 0 0 0 0 0
0 0 0 0 0 0 0 0 0 0 0 -1 -1 -19 -26 -4 0 0 0 0 0 0 -1 0 0 -1 0 -1 0 -1 0 0 0 0 -10 0 0 0
-1 0 0 0 0 0 0 -1 0 0 0 0 -46 0 0 0 0 0 0 0 0 0 0 0 0 0 0 -1 -2 0 -1 -1 -2 -10 -4 -3 -2 -1
0 0 0 0 0 0 0 0 0 0 0 -1 0 0 0 0 0 0 0 0 0 0 0 0 0 -1 -2 -1 0 -2 -1 0 -1 -5 -6 -4 0 -1
0 0 0 0 0 -1 0 0 -1 0 0 0 0 0 0 0 0 0 0 0 0 0 0 0 0 0 0 -1 0 -1 0 0 0 -30 -11 0 0 0
0 0 0 0 0 0 0 0 0 0 0 0 0 0 0 0 0 0 0 0 0 0 0 -1 -4 0 0 0 0 0 0 0 -2 -1 0 0 0 -3
0 0 0 0 0 0 0 0 0 0 0 0 0 0 -1 0 0 0 0 0 0 0 0 0 0 0 0 0 0 0 0 0 0 0 0 0 0 0
0 0 0 0 0 0 0 0 0 0 0 0 0 0 0 0 0 0 0 0 0 0 0 0 0 0 -15 -6 0 0 0 0 -9 -29 -1 0 -1 -2
-1 0 -1 0 0 0 0 0 0 0 -2 0 -1 0 0 0 0 0 0 0 0 0 0 0 -15 -15 -3 0 -1 0 0 0 0 0 0 0 -1 -1
0 0 -4 0 0 0 0 0 0 0 0 0 0 0 0 0 0 0 0 0 0 0 0 0 0 -1 0 -2 -8 -2 -1 0 0 0 0 0 0 0
Wind_Speed
8 7 8 9 10 7 8 6 6 8 7 5 4 3 5 5 9 9 10 11 10 10 9 9 9 9 9 9 8 8 8 7 7 7 8 7 9 9
7 7 8 10 10 6 7 8 7 6 7 9 2 4 1 8 7 2 8 12 9 8 9 9 9 10 10 10 9 9 8 8 8 7 6 6 10 12
10 10 9 9 9 10 7 7 8 8 8 9 4 4 2 5 3 5 9 8 8 8 9 10 11 11 11 10 10 10 8 7 7 8 10 12 12 12
12 11 11 10 10 10 10 9 9 5 9 6 8 9 5 4 5 4 5 5 8 11 9 9 10 11 12 11 11 10 9 9 8 9 10 11 12 12
12 11 11 12 12 11 10 11 8 8 8 9 10 6 9 7 7 5 3 3 4 14 10 9 9 10 10 11 11 10 9 8 9 10 11 12 13 13
12 12 12 12 12 11 12 12 11 10 9 10 11 9 9 6 8 8 5 3 5 8 9 10 11 10 9 9 11 11 10 9 9 10 11 12 13 13
13 12 13 14 15 12 8 12 12 10 12 10 9 9 9 5 10 7 8 7 5 6 8 9 8 8 8 9 11 13 12 12 11 11 12 12 12 13
11 13 13 13 13 14 14 13 13 12 13 13 10 9 9 7 9 8 6 5 3 4 8 9 7 7 7 8 13 14 13 13 13 13 13 12 13 12
12 13 13 13 12 14 15 19 19 17 18 13 14 14 12 7 6 10 10 9 7 8 9 6 7 4 4 7 20 13 11 12 13 14 13 12 13 12
13 14 14 15 15 15 16 16 15 15 16 15 18 17 14 11 8 8 11 12 4 6 10 5 5 5 7 7 14 13 12 11 11 12 13 14 10 10
12 12 13 14 13 5 12 17 18 16 12 14 16 12 12 6 6 5 6 6 2 2 6 3 4 6 3 6 7 14 11 9 8 10 7 6 7 8
12 12 12 15 14 14 14 14 14 16 16 14 11 6 9 7 7 5 4 7 4 3 4 4 7 4 4 3 5 6 5 12 9 6 6 7 6 4
12 12 12 7 3 7 8 13 15 10 13 12 11 8 6 7 4 4 5 3 3 2 9 7 6 4 3 6 6 6 6 5 2 3 6 7 8 6
13 12 13 8 10 11 9 12 9 9 12 9 9 5 5 5 4 2 6 7 5 1 14 9 6 8 6 5 7 9 7 6 5 4 4 5 11 10
11 12 13 17 19 15 17 15 12 10 11 9 7 3 2 7 9 7 9 9 9 7 6 4 6 8 7 7 10 10 10 6 6 5 5 7 7 6
8 9 10 12 13 10 10 7 9 11 7 10 4 5 6 4 6 6 6 6 5 4 5 6 10 11 7 8 12 10 6 4 5 5 5 8 8 7
7 5 5 4 3 4 5 7 7 8 7 3 6 7 7 7 6 5 6 4 4 4 5 6 7 7 7 13 9 9 7 3 5 6 7 6 5 3
3 5 5 5 5 4 4 3 1 5 5 6 7 7 7 7 7 7 7 7 7 5 7 8 10 10 10 9 8 9 5 6 8 6 7 6 6 5
7 7 6 6 6 5 5 5 6 6 8 8 8 8 8 8 8 8 8 8 8 8 6 6 7 8 10 7 2 2 9 7 7 8 8 5 6 8
7 6 7 7 6 6 5 6 7 7 7 8 9 8 7 8 9 11 10 9 9 7 7 4 5 6 8 7 7 8 5 7 9 9 8 5 5 8
8 8 5 6 6 6 6 6 7 7 7 8 7 7 6 6 9 11 11 9 10 7 6 3 3 9 3 9 9 10 6 7 7 1 5 7 9 9
7 7 6 5 6 6 6 6 7 7 7 7 7 8 10 10 11 11 11 11 9 8 9 9 12 11 8 8 9 9 6 5 7 11 10 7 4 2
7 7 6 6 7 8 8 9 8 5 5 9 10 10 11 12 12 11 11 11 12 10 9 8 7 7 6 5 9 8 11 7 6 5 4 8 8 8
Wind_Direction
261 239 223 272 272 260 270 278 280 290 286 187 248 163 133 156 139 191 149 170 172 170 170 169 168 159 142 132 131 131 128 122 110 94 78 80 83 84
258 253 238 266 282 320 326 283 288 300 292 301 5 10 347 104 162 230 150 158 171 173 166 167 167 158 148 141 141 139 138 133 121 108 95 101 94 92
250 273 271 258 266 277 242 292 288 256 246 259 275 287 90 275 186 157 164 181 168 182 171 169 166 160 155 153 151 147 142 133 125 111 98 93 94 94
238 238 256 258 235 263 272 264 241 247 274 268 265 274 254 197 230 207 222 209 161 159 172 173 168 163 158 158 152 145 141 135 123 112 108 104 102 105
258 260 248 237 249 250 250 263 245 245 242 247 254 253 235 181 167 189 243 123 95 136 154 167 169 166 162 157 150 145 138 129 121 112 104 103 105 107
263 269 273 269 261 246 246 252 265 267 235 240 249 259 248 224 167 178 197 147 164 186 179 169 166 164 159 154 149 142 132 124 118 113 109 106 104 104
258 262 255 251 251 250 246 250 252 245 252 253 247 240 238 177 193 194 198 181 198 202 186 170 173 174 170 173 160 154 140 135 127 118 110 104 101 100
277 273 266 257 250 235 240 234 248 252 245 259 259 241 238 197 196 196 171 165 189 237 195 192 176 189 166 192 159 149 146 140 130 125 121 120 119 117
278 278 278 269 263 262 234 231 238 236 237 255 256 260 276 277 255 189 182 188 202 173 196 193 177 140 121 104 128 141 144 137 136 137 134 131 127 126
269 271 271 274 274 281 286 283 265 237 231 233 241 251 255 255 263 227 205 199 208 145 175 166 144 92 96 97 118 134 137 136 137 135 139 136 145 143
271 266 268 272 277 324 297 273 270 266 254 227 236 273 223 187 267 244 216 201 153 163 171 122 133 115 109 120 121 126 109 100 93 102 97 129 146 164
289 278 255 253 258 257 268 270 273 273 266 265 257 215 223 206 208 229 240 232 158 148 166 104 138 125 107 73 87 101 88 102 107 118 164 179 203 221
298 293 285 316 261 274 279 275 269 289 285 293 251 247 240 167 171 127 139 244 163 157 156 128 165 141 100 128 133 152 143 142 175 200 220 229 235 237
279 283 286 328 337 315 271 271 284 293 261 262 266 223 166 166 131 84 69 64 49 97 165 157 137 170 150 140 156 165 169 166 175 201 220 231 235 244
273 278 301 285 274 274 258 255 259 250 269 233 242 182 115 91 96 84 86 81 63 59 163 147 156 154 156 143 146 164 159 168 185 199 207 229 215 203
290 281 282 282 293 284 301 267 240 236 215 248 259 103 100 113 113 127 112 95 70 37 75 106 130 137 136 140 150 156 143 160 176 216 219 232 209 207
297 290 297 278 264 263 250 246 260 258 188 197 130 117 110 109 107 111 126 109 99 113 99 107 112 103 120 141 140 132 135 116 168 215 227 220 199 181
357 358 356 348 339 309 235 249 261 96 105 110 106 114 115 110 103 94 96 100 105 103 107 110 112 108 102 75 105 133 145 197 183 202 224 199 191 199
27 13 7 8 3 13 37 51 72 76 91 96 97 99 101 104 108 112 113 107 99 97 93 115 117 117 120 114 120 293 186 176 177 194 214 209 240 174
42 24 14 12 18 28 46 64 69 71 76 88 95 104 109 118 121 120 116 113 108 100 95 83 110 133 131 148 157 157 63 189 186 197 197 208 80 104
56 52 23 33 34 38 49 62 68 75 89 96 99 101 107 108 114 123 126 126 127 130 127 153 237 233 236 155 154 158 145 74 52 31 179 208 196 187
49 69 93 82 71 63 65 78 89 92 97 101 113 125 122 121 119 132 138 147 152 160 169 192 205 193 190 179 156 154 167 150 103 82 77 65 359 9
90 97 63 74 105 105 103 105 101 99 112 129 124 124 126 132 142 150 161 161 172 180 164 156 167 185 191 106 132 170 146 165 184 200 180 145 143 153